Location: *
(51.1248°S, 108.4023°W)
Time: 19:14:23
(UTC+00:00)

Cosmos 1937 Rocket - Pass Details

Date: 23 October 2021
Orbit: 746 x 781 km, 74.0° (Epoch: 03 December)

Event Time Altitude Azimuth Distance (km) Brightness Sun altitude
Exits shadow 10:12:52 - 7° (N) 3,088 6.3 -14.5°
Reaches altitude 10° 10:14:56 10° 15° (NNE) 2,347 5.8 -14.2°
Maximum altitude 10:19:42 34° 78° (ENE) 1,287 5.1 -13.6°
Drops below altitude 10° 10:24:30 10° 141° (SE) 2,366 7.4 -13.0°
Sets 10:27:05 0° 149° (SSE) 3,297 8.2 -12.7°
